IZ1RFL-3 Weather Reports


time (UTC)temp
C
wind
direction
speed
KPH
gust
KPH
rain 1hr
cm
rain 24hr
cm
rain mn
cm
humidity
%
barometer
mb
20260507110107 21 0 0.0 0.0 0.00 0.00 0.00 44 1015.4
20260507104607 21 0 0.0 0.0 0.00 0.00 0.00 47 1015.5
20260507103107 18 0 0.0 0.0 0.00 0.00 0.00 53 1015.7
20260507101607 18 0 0.0 0.0 0.00 0.00 0.00 52 1015.6
20260507100107 20 0 0.0 0.0 0.00 0.00 0.00 49 1015.8
20260507094607 18 0 0.0 0.0 0.00 0.00 0.00 52 1015.7
20260507093107 17 0 0.0 0.0 0.00 0.00 0.00 60 1015.7
20260507091607 17 0 0.0 0.0 0.00 0.00 0.00 63 1015.7
20260507090107 17 0 0.0 0.0 0.00 0.00 0.00 60 1015.7
20260507084607 16 0 0.0 0.0 0.00 0.00 0.00 62 1015.5
20260507083107 15 0 0.0 0.0 0.00 0.00 0.00 69 1015.4
20260507081607 16 0 0.0 0.0 0.00 0.00 0.00 64 1015.4
20260507080107 16 0 0.0 0.0 0.00 0.00 0.00 63 1015.3
20260507074607 15 0 0.0 0.0 0.00 0.00 0.00 66 1015.2
20260507073107 14 0 0.0 0.0 0.00 0.00 0.00 70 1015.2
20260507071607 15 0 0.0 0.0 0.00 0.00 0.00 71 1015.1
20260507070107 13 0 0.0 0.0 0.00 0.00 0.00 76 1015.0
20260507064607 13 0 0.0 0.0 0.00 0.00 0.00 77 1015.0
20260507063107 13 0 0.0 0.0 0.00 0.00 0.00 79 1014.9
20260507061607 12 0 0.0 0.0 0.00 0.00 0.00 80 1014.7
20260507060107 12 0 0.0 0.0 0.00 0.00 0.00 79 1014.6
20260507054607 12 0 0.0 0.0 0.00 0.00 0.00 80 1014.4
20260507053107 12 0 0.0 0.0 0.00 0.00 0.00 80 1014.2
20260507051607 12 0 0.0 0.0 0.00 0.00 0.00 80 1013.9
20260507050107 13 0 0.0 0.0 0.00 0.00 0.00 79 1013.6
20260507044607 12 0 0.0 0.0 0.00 0.00 0.00 80 1013.5
20260507043107 12 0 0.0 0.0 0.00 0.00 0.00 80 1013.4
20260507041607 12 0 0.0 0.0 0.00 0.00 0.00 80 1013.2
20260507040107 12 0 0.0 0.0 0.00 0.00 0.00 79 1013.4
20260507034607 12 0 0.0 0.0 0.00 0.00 0.00 81 1013.3
20260507033107 12 0 0.0 0.0 0.00 0.00 0.00 81 1013.1
20260507031607 12 0 0.0 0.0 0.00 0.00 0.00 80 1013.0
20260507030107 12 0 0.0 0.0 0.00 0.00 0.00 80 1012.9
20260507024607 12 0 0.0 0.0 0.00 0.00 0.00 80 1012.9
20260507023107 13 0 0.0 0.0 0.00 0.00 0.00 79 1013.0
20260507021607 13 0 0.0 0.0 0.00 0.00 0.00 79 1012.9
20260507020107 12 0 0.0 0.0 0.00 0.00 0.00 82 1012.8
20260507014607 12 0 0.0 0.0 0.00 0.00 0.00 81 1012.6
20260507013107 13 0 0.0 0.0 0.00 0.00 0.00 80 1012.4
20260507011607 13 0 0.0 0.0 0.00 0.00 0.00 80 1012.4
20260507010107 13 0 0.0 0.0 0.00 0.00 0.00 81 1012.3
20260507004607 13 0 0.0 0.0 0.00 0.00 0.00 81 1012.4
20260507003107 13 0 0.0 0.0 0.00 0.00 0.00 80 1012.4
20260507001607 13 0 0.0 0.0 0.00 0.00 0.00 79 1012.4
20260507000107 13 0 0.0 0.0 0.00 0.00 0.00 80 1012.3
20260506234607 13 0 0.0 0.0 0.00 0.00 0.00 80 1012.1
20260506233107 13 0 0.0 0.0 0.00 0.00 0.00 80 1012.1
20260506231607 13 0 0.0 0.0 0.00 0.00 0.00 80 1012.2
20260506230107 13 0 0.0 0.0 0.00 0.00 0.00 78 1012.1
20260506224607 14 0 0.0 0.0 0.00 0.00 0.00 79 1012.0
20260506223107 14 0 0.0 0.0 0.00 0.00 0.00 77 1011.8
20260506221607 14 0 0.0 0.0 0.00 0.00 0.00 77 1011.6
20260506220107 14 0 0.0 0.0 0.00 0.00 0.00 78 1011.6
20260506214607 14 0 0.0 0.0 0.00 0.00 0.00 77 1011.4
20260506213107 15 0 0.0 0.0 0.00 0.00 0.00 74 1011.3
20260506211607 15 0 0.0 0.0 0.00 0.00 0.00 73 1011.4
20260506210107 15 0 0.0 0.0 0.00 0.00 0.00 75 1011.4
20260506204607 15 0 0.0 0.0 0.00 0.00 0.00 73 1011.1
20260506203107 15 0 0.0 0.0 0.00 0.00 0.00 73 1010.7
20260506201607 15 0 0.0 0.0 0.00 0.00 0.00 72 1010.6
20260506200107 16 0 0.0 0.0 0.00 0.00 0.00 70 1010.3
20260506194607 16 0 0.0 0.0 0.00 0.00 0.00 66 1009.8
20260506193107 16 0 0.0 0.0 0.00 0.00 0.00 67 1009.4
20260506191607 16 0 0.0 0.0 0.00 0.00 0.00 68 1009.1
20260506190107 16 0 0.0 0.0 0.00 0.00 0.00 66 1009.0
20260506184607 17 0 0.0 0.0 0.00 0.00 0.00 67 1008.7
20260506183107 17 0 0.0 0.0 0.00 0.00 0.00 64 1008.4
20260506181607 17 0 0.0 0.0 0.00 0.00 0.00 62 1008.3
20260506180107 18 0 0.0 0.0 0.00 0.00 0.00 60 1008.1
20260506174607 18 0 0.0 0.0 0.00 0.00 0.00 59 1008.0
20260506173107 18 0 0.0 0.0 0.00 0.00 0.00 61 1007.7
20260506171607 18 0 0.0 0.0 0.00 0.00 0.00 60 1007.7
20260506170107 18 0 0.0 0.0 0.00 0.00 0.00 57 1007.3
20260506164607 18 0 0.0 0.0 0.00 0.00 0.00 56 1007.0
20260506163107 18 0 0.0 0.0 0.00 0.00 0.00 57 1007.0
20260506161607 18 0 0.0 0.0 0.00 0.00 0.00 54 1006.9
20260506160107 18 0 0.0 0.0 0.00 0.00 0.00 53 1007.0
20260506154607 18 0 0.0 0.0 0.00 0.00 0.00 56 1006.9
20260506153107 17 0 0.0 0.0 0.00 0.00 0.00 62 1006.8
20260506151607 18 0 0.0 0.0 0.00 0.00 0.00 55 1007.0
20260506150107 19 0 0.0 0.0 0.00 0.00 0.00 51 1006.9
20260506144607 20 0 0.0 0.0 0.00 0.00 0.00 48 1007.0
20260506143106 20 0 0.0 0.0 0.00 0.00 0.00 44 1006.9
20260506141606 20 0 0.0 0.0 0.00 0.00 0.00 45 1007.1
20260506140107 20 0 0.0 0.0 0.00 0.00 0.00 47 1007.2
20260506134606 20 0 0.0 0.0 0.00 0.00 0.00 47 1007.3
20260506133106 22 0 0.0 0.0 0.00 0.00 0.00 45 1007.5
20260506131606 21 0 0.0 0.0 0.00 0.00 0.00 51 1007.5
20260506130106 22 0 0.0 0.0 0.00 0.00 0.00 49 1007.7
20260506124606 22 0 0.0 0.0 0.00 0.00 0.00 47 1007.8
20260506123106 22 0 0.0 0.0 0.00 0.00 0.00 51 1007.8
20260506121606 22 0 0.0 0.0 0.00 0.00 0.00 49 1007.9
20260506120106 23 0 0.0 0.0 0.00 0.00 0.00 48 1008.0
20260506114607 22 0 0.0 0.0 0.00 0.00 0.00 48 1008.0
20260506113107 21 0 0.0 0.0 0.00 0.00 0.00 54 1008.1
20260506111606 20 0 0.0 0.0 0.00 0.00 0.00 54 1008.2